Zurück zum Katalog

STARLINK-37379

AktivKommunikationVLEO
NORAD 69522·PAYLOAD·🇺🇸 United States

Gestartet Jun 12, 2026 von Cape Canaveral Space Force Station

Loading…

Nächste Überflüge (nächste 24 Stunden)

TLE

AktuellSource: CelesTrak SupGP

Epoche: Sep 15, 2026, 04:00 UTC

1 69522C 26133Q   26258.16715278 -.00049222  00000+0 -14541-2 0  2584
2 69522  53.1565 254.5169 0001265  90.7257  34.0085 15.34418530    12

Verfolge STARLINK-37379 in Echtzeit mit AllMySat

Download on the App Store